G3ZSS Weather Reports


time (UTC)temp
C
wind
direction
speed
KPH
gust
KPH
rain 1hr
cm
rain 24hr
cm
rain mn
cm
humidity
%
barometer
mb
20260507224003 7 102 1.6 1.6 0.00 0.00 0.00 88 1015.9
20260507223004 8 97 0.0 1.6 0.00 0.00 0.00 87 1016.0
20260507222004 8 97 0.0 0.0 0.00 0.00 0.00 87 1015.9
20260507221003 8 97 0.0 1.6 0.00 0.00 0.00 87 1016.0
20260507215004 8 97 1.6 3.2 0.00 0.00 0.00 88 1016.1
20260507214005 8 148 0.0 0.0 0.00 0.00 0.00 88 1016.1
20260507213003 8 148 0.0 0.0 0.00 0.00 0.00 87 1016.0
20260507212004 8 148 0.0 0.0 0.00 0.00 0.00 86 1016.0
20260507211003 8 148 0.0 0.0 0.00 0.00 0.00 85 1016.0
20260507210004 8 148 0.0 0.0 0.00 0.00 0.00 84 1016.2
20260507204003 9 148 0.0 0.0 0.00 0.00 0.00 83 1016.2
20260507203003 13 3 0.0 0.0 0.00 0.00 0.00 70 1016.0
20260507202004 13 3 0.0 0.0 0.00 0.00 0.00 70 1016.0
20260507201003 13 3 0.0 0.0 0.00 0.00 0.00 70 1015.9
20260507200003 13 3 0.0 0.0 0.00 0.00 0.00 70 1015.7
20260507195004 13 3 0.0 0.0 0.00 0.00 0.00 70 1015.5
20260507193004 13 3 0.0 0.0 0.00 0.00 0.00 70 1015.2
20260507192003 13 3 0.0 0.0 0.00 0.00 0.00 70 1015.1
20260507190005 13 3 0.0 0.0 0.00 0.00 0.00 70 1014.9
20260507185004 13 3 0.0 0.0 0.00 0.00 0.00 70 1014.9
20260507184003 13 6 1.6 1.6 0.00 0.00 0.00 70 1015.1
20260507183004 13 198 1.6 4.8 0.00 0.00 0.00 70 1014.9
20260507182003 13 198 1.6 4.8 0.00 0.00 0.00 69 1014.9
20260507181004 14 120 1.6 3.2 0.00 0.00 0.00 68 1014.9
20260507180004 14 52 1.6 4.8 0.00 0.00 0.00 67 1014.8
20260507175003 14 120 1.6 4.8 0.00 0.00 0.00 68 1014.9
20260507174004 14 189 3.2 8.0 0.00 0.00 0.00 69 1014.9
20260507173004 14 178 3.2 8.0 0.00 0.00 0.00 67 1014.9
20260507172003 13 123 4.8 9.7 0.00 0.00 0.00 68 1014.9
20260507171004 14 154 3.2 8.0 0.00 0.00 0.00 71 1015.0
20260507170004 14 165 3.2 9.7 0.00 0.00 0.00 69 1015.0
20260507164003 15 164 4.8 11.3 0.00 0.00 0.00 68 1015.0
20260507163003 15 189 3.2 9.7 0.00 0.00 0.00 68 1015.0
20260507162003 15 184 3.2 9.7 0.00 0.00 0.00 66 1015.0
20260507161004 15 206 3.2 9.7 0.00 0.00 0.00 68 1015.1
20260507160004 15 178 3.2 11.3 0.00 0.00 0.00 68 1015.2
20260507155004 15 246 3.2 11.3 0.00 0.00 0.00 68 1015.2
20260507153004 15 194 4.8 16.1 0.00 0.00 0.00 69 1015.3
20260507152003 15 178 4.8 16.1 0.00 0.00 0.00 69 1015.3
20260507151004 15 178 4.8 9.7 0.00 0.00 0.00 70 1015.3
20260507150004 15 230 4.8 12.9 0.00 0.00 0.00 69 1015.4
20260507145003 15 167 4.8 16.1 0.00 0.00 0.00 70 1015.4
20260507144004 15 203 4.8 16.1 0.00 0.00 0.00 68 1015.4
20260507143004 15 204 3.2 12.9 0.00 0.00 0.00 70 1015.5
20260507142004 15 199 4.8 12.9 0.00 0.00 0.00 68 1015.6
20260507141004 15 200 4.8 12.9 0.00 0.00 0.00 70 1015.6
20260507140004 15 202 4.8 9.7 0.00 0.00 0.00 70 1015.7
20260507135003 14 189 3.2 9.7 0.00 0.00 0.00 73 1015.7
20260507134003 13 173 3.2 11.3 0.00 0.00 0.00 74 1015.7
20260507133004 13 192 3.2 12.9 0.00 0.00 0.00 75 1015.7
20260507131004 13 191 3.2 9.7 0.00 0.00 0.00 77 1015.8
20260507130004 12 179 4.8 12.9 0.00 0.00 0.00 77 1015.9
20260507125004 12 160 4.8 11.3 0.00 0.00 0.00 76 1015.9
20260507124003 12 164 3.2 11.3 0.00 0.00 0.00 77 1015.9
20260507123004 12 169 3.2 8.0 0.00 0.00 0.00 77 1015.9
20260507122004 12 180 3.2 11.3 0.00 0.00 0.00 76 1015.9
20260507121004 12 205 3.2 8.0 0.00 0.00 0.00 76 1015.9
20260507120004 12 170 3.2 11.3 0.00 0.00 0.00 76 1015.9
20260507115003 13 222 4.8 9.7 0.00 0.00 0.00 75 1015.9
20260507112004 14 202 3.2 12.9 0.00 0.00 0.00 71 1015.7
20260507110004 15 74 4.8 16.1 0.00 0.00 0.00 66 1015.7
20260507105004 15 89 3.2 14.5 0.00 0.00 0.00 68 1015.7
20260507104004 14 175 6.4 14.5 0.00 0.00 0.00 66 1015.8
20260507103003 15 205 3.2 9.7 0.00 0.00 0.00 66 1015.8
20260507102003 15 216 4.8 14.5 0.00 0.00 0.00 64 1015.9
20260507100005 15 74 3.2 8.0 0.00 0.00 0.00 65 1015.9
20260507094003 15 86 4.8 9.7 0.00 0.00 0.00 67 1015.9
20260507093004 15 137 4.8 9.7 0.00 0.00 0.00 67 1015.9
20260507092004 15 221 3.2 9.7 0.00 0.00 0.00 68 1015.9
20260507091003 15 114 3.2 4.8 0.00 0.00 0.00 67 1015.8
20260507090004 15 70 1.6 4.8 0.00 0.00 0.00 70 1015.9
20260507085003 14 348 1.6 8.0 0.00 0.00 0.00 68 1015.9
20260507083004 13 192 1.6 8.0 0.00 0.00 0.00 72 1016.0
20260507082004 13 206 0.0 8.0 0.00 0.00 0.00 74 1016.0
20260507081004 13 85 1.6 8.0 0.00 0.00 0.00 74 1015.9
20260507080003 13 200 1.6 8.0 0.00 0.00 0.00 76 1015.9
20260507075003 12 34 3.2 8.0 0.00 0.00 0.00 76 1015.8
20260507074004 12 101 0.0 8.0 0.00 0.00 0.00 78 1015.9
20260507073004 12 138 1.6 4.8 0.00 0.00 0.00 79 1015.8
20260507072003 12 57 0.0 3.2 0.00 0.00 0.00 82 1015.8
20260507070006 10 325 0.0 0.0 0.00 0.00 0.00 91 1015.7
20260507065004 9 325 0.0 0.0 0.00 0.00 0.00 92 1015.6
20260507064003 8 325 0.0 3.2 0.00 0.00 0.00 91 1015.7
20260507062004 7 325 0.0 0.0 0.00 0.00 0.00 92 1015.6
20260507061003 6 325 0.0 0.0 0.00 0.00 0.00 92 1015.5
20260507060004 6 325 0.0 0.0 0.00 0.00 0.00 92 1015.5
20260507055003 5 325 0.0 3.2 0.00 0.00 0.00 91 1015.4
20260507054004 5 253 0.0 3.2 0.00 0.00 0.00 91 1015.4
20260507053005 5 36 1.6 4.8 0.00 0.00 0.00 91 1015.3
20260507052004 5 298 1.6 3.2 0.00 0.00 0.00 91 1015.2
20260507051003 5 329 1.6 3.2 0.00 0.00 0.00 91 1015.2
20260507050004 5 301 0.0 4.8 0.00 0.00 0.00 90 1015.1
20260507045004 5 311 3.2 4.8 0.00 0.00 0.00 90 1015.1
20260507044003 5 311 3.2 4.8 0.00 0.00 0.00 90 1015.1
20260507043004 5 306 3.2 4.8 0.00 0.00 0.00 90 1015.1
20260507042004 5 320 3.2 8.0 0.00 0.00 0.00 90 1015.0
20260507041003 5 307 3.2 4.8 0.00 0.00 0.00 90 1015.1
20260507035003 5 320 3.2 4.8 0.00 0.00 0.00 90 1015.1
20260507034004 5 321 3.2 4.8 0.00 0.00 0.00 90 1015.0
20260507033004 5 306 3.2 4.8 0.00 0.00 0.00 90 1015.0
20260507032003 5 303 3.2 4.8 0.00 0.00 0.00 90 1014.9
20260507031004 5 300 3.2 4.8 0.00 0.00 0.00 89 1014.9
20260507030004 5 317 3.2 4.8 0.00 0.00 0.00 89 1014.9
20260507025003 5 318 3.2 4.8 0.00 0.00 0.00 89 1014.9
20260507024004 5 308 1.6 3.2 0.00 0.00 0.00 89 1014.8
20260507023004 5 309 3.2 4.8 0.00 0.00 0.00 89 1014.8
20260507022003 5 311 3.2 4.8 0.00 0.00 0.00 89 1014.8
20260507021004 5 304 1.6 4.8 0.00 0.00 0.00 88 1014.7
20260507020004 5 302 3.2 4.8 0.00 0.00 0.00 88 1014.7
20260507015003 5 307 3.2 4.8 0.00 0.00 0.00 88 1014.6
20260507013003 5 288 3.2 4.8 0.00 0.00 0.00 88 1014.6
20260507012004 5 295 3.2 4.8 0.00 0.00 0.00 88 1014.7
20260507011004 6 311 3.2 4.8 0.00 0.00 0.00 87 1014.7
20260507010004 6 303 1.6 4.8 0.00 0.00 0.00 87 1014.8
20260507005004 6 298 1.6 4.8 0.00 0.00 0.00 87 1014.7
20260507004003 6 309 1.6 4.8 0.00 0.00 0.00 86 1014.7
20260507003004 6 309 1.6 4.8 0.00 0.00 0.00 86 1014.7
20260507002003 6 300 1.6 4.8 0.00 0.00 0.00 85 1014.8
20260507001004 7 320 1.6 4.8 0.00 0.00 0.00 85 1014.8
20260507000004 7 320 1.6 4.8 0.00 0.00 0.00 85 1014.8
20260506234004 7 316 1.6 3.2 0.00 0.00 0.00 84 1014.7
20260506233004 7 316 1.6 4.8 0.00 0.00 0.00 83 1014.7
20260506232004 7 314 1.6 4.8 0.00 0.00 0.00 82 1014.6
20260506231004 8 300 1.6 3.2 0.00 0.00 0.00 81 1014.5
20260506230003 8 300 1.6 3.2 0.00 0.00 0.00 81 1014.5